Date String (YYYY-MM-DD hh:mm:ss) UTC,Instrument flags,absolute air pressure of the measurement (hPa),sample flow rate (lpm),inlet stack bypass flow (lpm),air temperature of the measurement (°C),ambient temperature measured by the external sensor (°C),aerosol sample conditioner tube jacket temperature (°C),OPC LED temperature (°C),internal box temperature (°C),relative humidity of the measurement (%),span deviation,mass concentration of particles derived from Lorenz-Mie calculation of OPC scattering (μg/m³),mass concentration of particles derived from Lorenz-Mie calculation of OPC scattering (μg/m³),mass concentration of particles derived from Lorenz-Mie calculation of OPC scattering (μg/m³)
DateTimeUTC,F1_M11,P_M11,Q1_M11,Q2_M11,T1_M11,T2_M11,T3_M11,T4_M11,T5_M11,U1_M11,ZSPAN_M11,X2_M11,X0_M11,X1_M11
2024-06-02 15:00:00,SystemResetWarning,0825.4,5.00,000.00,030.8,030.0,000.0,039.1,032.4,021.1,0000.0,0003.56,0008.68,0003.03
2024-06-02 15:01:00,SystemResetWarning,0825.4,5.00,000.00,030.8,030.0,000.0,039.1,032.4,021.4,0000.0,0003.58,0008.99,0003.04
2024-06-02 15:02:00,SystemResetWarning,0825.5,5.00,000.00,030.8,030.1,000.0,039.1,032.4,020.6,0000.0,0003.62,0008.37,0003.07
2024-06-02 15:03:00,SystemResetWarning,0825.4,5.00,000.00,030.8,030.1,000.0,039.1,032.4,020.7,0000.0,0003.65,0008.37,0003.07
2024-06-02 15:04:00,SystemResetWarning,0825.4,5.00,000.00,030.8,030.1,000.0,039.1,032.4,020.5,0000.0,0003.67,0008.40,0003.08
2024-06-02 15:05:00,SystemResetWarning,0825.4,5.00,000.00,030.8,030.1,000.0,039.1,032.4,020.5,0000.0,0003.72,0008.55,0003.10
2024-06-02 15:06:00,SystemResetWarning,0825.4,4.98,000.00,030.8,030.1,000.0,039.1,032.5,021.1,0000.0,0003.75,0008.65,0003.11
2024-06-02 15:07:00,SystemResetWarning,0825.4,5.00,000.00,030.8,030.1,000.0,039.1,032.5,021.6,0000.0,0003.74,0008.58,0003.12
2024-06-02 15:08:00,SystemResetWarning,0825.4,5.00,000.00,030.9,030.1,000.0,039.1,032.4,021.5,0000.0,0003.77,0009.29,0003.11
2024-06-02 15:09:00,SystemResetWarning,0825.4,5.01,000.00,030.9,030.2,000.0,039.2,032.5,020.7,0000.0,0003.75,0008.45,0003.11
2024-06-02 15:10:00,SystemResetWarning,0825.4,5.01,000.00,030.9,030.2,000.0,039.2,032.5,020.2,0000.0,0003.76,0008.53,0003.09
2024-06-02 15:11:00,SystemResetWarning,0825.3,5.00,000.00,030.9,030.2,000.0,039.2,032.5,019.9,0000.0,0003.74,0008.63,0003.06
2024-06-02 15:12:00,SystemResetWarning,0825.3,4.99,000.00,030.9,030.2,000.0,039.2,032.5,020.2,0000.0,0003.74,0008.47,0003.05
2024-06-02 15:13:00,SystemResetWarning,0825.4,4.99,000.00,030.9,030.2,000.0,039.2,032.5,020.0,0000.0,0003.75,0008.80,0003.03
2024-06-02 15:14:00,SystemResetWarning,0825.3,5.00,000.00,030.9,030.2,000.0,039.2,032.6,019.1,0000.0,0003.77,0009.61,0003.03
2024-06-02 15:15:00,SystemResetWarning,0825.3,5.00,000.00,030.9,030.2,000.0,039.2,032.6,019.1,0000.0,0003.79,0009.65,0003.07
2024-06-02 15:16:00,SystemResetWarning,0825.2,5.00,000.00,031.0,030.3,000.0,039.2,032.6,019.3,0000.0,0003.81,0010.22,0003.08
2024-06-02 15:17:00,SystemResetWarning,0825.2,4.99,000.00,031.0,030.3,000.0,039.3,032.6,019.6,0000.0,0003.80,0010.54,0003.10
2024-06-02 15:18:00,SystemResetWarning,0825.2,5.00,000.00,031.0,030.3,000.0,039.3,032.7,019.0,0000.0,0003.82,0010.70,0003.11
2024-06-02 15:19:00,SystemResetWarning,0825.2,5.01,000.00,031.0,030.3,000.0,039.3,032.7,018.9,0000.0,0003.83,0010.24,0003.13
2024-06-02 15:20:00,SystemResetWarning,0825.3,5.00,000.00,031.0,030.3,000.0,039.3,032.7,018.7,0000.0,0003.84,0010.22,0003.14
2024-06-02 15:21:00,SystemResetWarning,0825.2,4.99,000.00,031.0,030.3,000.0,039.3,032.6,018.2,0000.0,0003.85,0010.17,0003.16
2024-06-02 15:22:00,SystemResetWarning,0825.2,4.99,000.00,031.0,030.3,000.0,039.3,032.6,018.4,0000.0,0003.85,0010.50,0003.18
2024-06-02 15:23:00,SystemResetWarning,0825.2,5.01,000.00,031.0,030.3,000.0,039.3,032.6,018.1,0000.0,0003.84,0010.87,0003.19
2024-06-02 15:24:00,SystemResetWarning,0825.2,5.01,000.00,031.0,030.3,000.0,039.4,032.6,018.4,0000.0,0003.86,0010.55,0003.22
2024-06-02 15:25:00,SystemResetWarning,0825.2,4.99,000.00,031.0,030.3,000.0,039.4,032.6,018.6,0000.0,0003.89,0009.91,0003.24
2024-06-02 15:26:00,SystemResetWarning,0825.2,4.99,000.00,031.1,030.3,000.0,039.4,032.6,018.1,0000.0,0003.90,0010.02,0003.24
2024-06-02 15:27:00,SystemResetWarning,0825.2,5.00,000.00,031.1,030.3,000.0,039.4,032.7,017.7,0000.0,0003.87,0009.39,0003.24
2024-06-02 15:28:00,SystemResetWarning,0825.2,5.00,000.00,031.1,030.3,000.0,039.4,032.7,018.3,0000.0,0003.85,0008.94,0003.24
2024-06-02 15:29:00,SystemResetWarning,0825.2,5.01,000.00,031.1,030.4,000.0,039.4,032.7,018.6,0000.0,0003.87,0008.91,0003.25
2024-06-02 15:30:00,SystemResetWarning,0825.2,5.00,000.00,031.1,030.4,000.0,039.4,032.7,018.3,0000.0,0003.89,0008.71,0003.26
2024-06-02 15:31:00,SystemResetWarning,0825.2,5.00,000.00,031.1,030.4,000.0,039.4,032.7,018.7,0000.0,0003.92,0008.64,0003.27
2024-06-02 15:32:00,SystemResetWarning,0825.1,5.01,000.00,031.1,030.4,000.0,039.4,032.7,018.6,0000.0,0003.93,0009.76,0003.28
2024-06-02 15:33:00,SystemResetWarning,0825.1,4.99,000.00,031.1,030.4,000.0,039.4,032.7,019.0,0000.0,0003.94,0010.44,0003.28
2024-06-02 15:34:00,SystemResetWarning,0825.1,4.99,000.00,031.1,030.3,000.0,039.5,032.6,018.9,0000.0,0003.96,0010.45,0003.30
2024-06-02 15:35:00,SystemResetWarning,0825.0,4.99,000.00,030.9,028.4,000.0,039.5,031.7,019.2,0000.0,0003.98,0010.60,0003.29
2024-06-02 15:36:00,SystemResetWarning,0824.9,5.01,000.00,030.4,026.5,000.0,039.5,030.7,019.6,0000.0,0003.95,0010.48,0003.28
2024-06-02 15:37:00,SystemResetWarning,0824.9,5.02,000.00,030.1,026.7,000.0,039.4,030.7,020.4,0000.0,0003.96,0010.46,0003.28
2024-06-02 15:38:00,SystemResetWarning,0825.0,5.00,000.00,030.0,027.2,000.0,039.2,030.9,020.3,0000.0,0003.96,0010.46,0003.28
2024-06-02 15:39:00,SystemResetWarning,0825.0,5.00,000.00,030.0,027.6,000.0,039.1,031.1,020.3,0000.0,0003.99,0010.60,0003.28
2024-06-02 15:40:00,SystemResetWarning,0825.1,4.99,000.00,030.0,028.0,000.0,038.9,031.3,020.8,0000.0,0003.96,0010.75,0003.27
2024-06-02 15:41:00,SystemResetWarning,0825.1,5.00,000.00,030.0,028.3,000.0,038.9,031.4,021.5,0000.0,0003.94,0010.80,0003.27
2024-06-02 15:42:00,SystemResetWarning,0825.1,5.00,000.00,030.0,028.6,000.0,038.8,031.6,021.8,0000.0,0003.90,0010.80,0003.26
2024-06-02 15:43:00,SystemResetWarning,0825.1,5.00,000.00,030.1,028.8,000.0,038.8,031.7,022.3,0000.0,0003.88,0010.22,0003.26
2024-06-02 15:44:00,SystemResetWarning,0825.0,5.00,000.00,030.1,029.0,000.0,038.7,031.7,021.9,0000.0,0003.88,0008.88,0003.25
2024-06-02 15:45:00,SystemResetWarning,0824.9,5.00,000.00,030.1,029.1,000.0,038.7,031.8,021.6,0000.0,0003.86,0008.08,0003.23
2024-06-02 15:46:00,SystemResetWarning,0824.9,5.00,000.00,030.2,029.3,000.0,038.7,031.8,021.8,0000.0,0003.85,0008.32,0003.23
2024-06-02 15:47:00,SystemResetWarning,0824.9,5.00,000.00,030.2,029.4,000.0,038.7,031.9,022.6,0000.0,0003.81,0008.56,0003.22
2024-06-02 15:48:00,SystemResetWarning,0824.9,5.00,000.00,030.2,029.5,000.0,038.7,031.9,022.7,0000.0,0003.76,0008.85,0003.21
2024-06-02 15:49:00,SystemResetWarning,0824.9,5.00,000.00,030.3,029.5,000.0,038.7,032.0,022.1,0000.0,0003.79,0008.93,0003.20
2024-06-02 15:50:00,SystemResetWarning,0824.9,5.00,000.00,030.3,029.6,000.0,038.7,032.0,022.1,0000.0,0003.84,0009.11,0003.20
2024-06-02 15:51:00,SystemResetWarning,0824.9,5.00,000.00,030.4,029.7,000.0,038.7,032.0,021.7,0000.0,0003.90,0009.11,0003.20
2024-06-02 15:52:00,SystemResetWarning,0824.9,4.99,000.00,030.4,029.7,000.0,038.7,032.1,021.8,0000.0,0003.90,0008.93,0003.19
2024-06-02 15:53:00,SystemResetWarning,0824.9,4.99,000.00,030.4,029.8,000.0,038.7,032.1,021.9,0000.0,0003.91,0008.88,0003.18
2024-06-02 15:54:00,SystemResetWarning,0824.9,5.00,000.00,030.5,029.8,000.0,038.7,032.2,022.4,0000.0,0003.92,0009.43,0003.18
2024-06-02 15:55:00,SystemResetWarning,0824.9,5.00,000.00,030.5,029.9,000.0,038.7,032.2,022.2,0000.0,0003.92,0009.39,0003.17
2024-06-02 15:56:00,SystemResetWarning,0824.9,5.01,000.00,030.5,029.9,000.0,038.8,032.2,021.7,0000.0,0003.93,0009.53,0003.17
2024-06-02 15:57:00,SystemResetWarning,0824.9,5.00,000.00,030.6,030.0,000.0,038.8,032.3,021.4,0000.0,0003.95,0009.42,0003.18
2024-06-02 15:58:00,SystemResetWarning,0824.9,4.98,000.00,030.6,029.4,000.0,038.9,031.9,021.2,0000.0,0003.94,0009.07,0003.18
2024-06-02 15:59:00,SystemResetWarning,0824.8,5.00,000.00,030.2,027.2,000.0,038.9,030.9,021.9,0000.0,0003.95,0008.71,0003.19
